WJA170 CYYC-CYCD

Flight info

Callsign WJA170
Flight time 1h 9m
Altitude 36000
Route ROVMA DCT UKSAP DCT NOVAR DCT BOOTH DCT LANNE DCT YVR DCT AMEBO DCT VIXOR DCT YCD
Aircraft B737/M-SDE2E3FGHIRWXY/LB1

Departure

Time 2026-04-16 05:26
Airport Calgary International Airport (CYYC)

Arrival

Time 2026-04-16 06:35
Airport Nanaimo Airport (CYCD)
Time Latitude Longitude Altitude Speed Heading
2026-04-16 05:20 51.13005 -114.01795 3558 ft 18 kts 177°
2026-04-16 05:20 51.12877 -114.01795 3558 ft 20 kts 180°
2026-04-16 05:21 51.12734 -114.01796 3558 ft 21 kts 181°
2026-04-16 05:21 51.12580 -114.01796 3558 ft 22 kts 181°
2026-04-16 05:21 51.12427 -114.01796 3558 ft 22 kts 180°
2026-04-16 05:21 51.12273 -114.01796 3558 ft 22 kts 181°
2026-04-16 05:22 51.12121 -114.01796 3558 ft 22 kts 180°
2026-04-16 05:22 51.11966 -114.01797 3558 ft 22 kts 180°
2026-04-16 05:22 51.11806 -114.01796 3558 ft 23 kts 179°
2026-04-16 05:22 51.11649 -114.01797 3558 ft 22 kts 180°
2026-04-16 05:23 51.11495 -114.01798 3558 ft 22 kts 180°
2026-04-16 05:23 51.11347 -114.01798 3557 ft 21 kts 180°
2026-04-16 05:23 51.11203 -114.01798 3558 ft 20 kts 180°
2026-04-16 05:23 51.11054 -114.01798 3558 ft 26 kts 180°
2026-04-16 05:24 51.10818 -114.01798 3558 ft 41 kts 180°
2026-04-16 05:24 51.10490 -114.01799 3558 ft 51 kts 180°
2026-04-16 05:24 51.10145 -114.01799 3558 ft 48 kts 180°
2026-04-16 05:24 51.09825 -114.01799 3558 ft 40 kts 180°
2026-04-16 05:25 51.09693 -114.01857 3558 ft 17 kts 248°
2026-04-16 05:25 51.09690 -114.02043 3560 ft 17 kts 269°
2026-04-16 05:25 51.09742 -114.02137 3559 ft 10 kts
2026-04-16 05:25 51.09899 -114.02138 3559 ft 53 kts
2026-04-16 05:26 51.10517 -114.02139 3553 ft 121 kts
2026-04-16 05:26 51.11515 -114.02125 3740 ft 158 kts
2026-04-16 05:26 51.12570 -114.02219 4794 ft 153 kts 357°
2026-04-16 05:26 51.13642 -114.02306 5635 ft 157 kts 358°
2026-04-16 05:27 51.14836 -114.02376 5981 ft 186 kts 359°
2026-04-16 05:27 51.16226 -114.02416 6262 ft 213 kts 360°
2026-04-16 05:27 51.17768 -114.02446 6651 ft 235 kts
2026-04-16 05:27 51.19447 -114.02890 7197 ft 256 kts 335°
2026-04-16 05:28 51.20814 -114.04739 8186 ft 267 kts 310°
2026-04-16 05:28 51.21618 -114.07492 9041 ft 286 kts 286°
2026-04-16 05:28 51.21646 -114.10737 9907 ft 302 kts 261°
2026-04-16 05:28 51.20878 -114.13870 10721 ft 312 kts 238°
2026-04-16 05:29 51.19522 -114.16730 11029 ft 337 kts 228°
2026-04-16 05:29 51.17897 -114.19544 11586 ft 350 kts 225°
2026-04-16 05:29 51.16215 -114.22374 12489 ft 353 kts 223°
2026-04-16 05:29 51.14542 -114.25230 13593 ft 351 kts 224°
2026-04-16 05:30 51.12896 -114.28105 14530 ft 353 kts 225°
2026-04-16 05:30 51.11274 -114.30985 15446 ft 354 kts 225°
2026-04-16 05:30 51.09639 -114.33921 16504 ft 353 kts 224°
2026-04-16 05:30 51.08019 -114.36843 17528 ft 354 kts 225°
2026-04-16 05:31 51.06368 -114.39820 18140 ft 364 kts 225°
2026-04-16 05:31 51.04689 -114.42853 18927 ft 366 kts 226°
2026-04-16 05:31 51.03016 -114.45876 19944 ft 361 kts 226°
2026-04-16 05:31 51.01361 -114.48860 20935 ft 359 kts 226°
2026-04-16 05:32 50.99706 -114.51840 21849 ft 360 kts 226°
2026-04-16 05:32 50.98244 -114.55088 22690 ft 365 kts 236°
2026-04-16 05:32 50.97124 -114.58665 23550 ft 368 kts 244°
2026-04-16 05:32 50.96357 -114.62577 24227 ft 374 kts 251°
2026-04-16 05:33 50.95750 -114.66616 24811 ft 379 kts 252°
2026-04-16 05:33 50.95140 -114.70710 25379 ft 382 kts 252°
2026-04-16 05:33 50.94509 -114.74818 25970 ft 385 kts 251°
2026-04-16 05:33 50.93859 -114.78967 26513 ft 390 kts 252°
2026-04-16 05:34 50.93189 -114.83185 26916 ft 398 kts 252°
2026-04-16 05:34 50.92507 -114.87453 27460 ft 400 kts 251°
2026-04-16 05:34 50.91821 -114.91747 28061 ft 402 kts 251°
2026-04-16 05:34 50.91132 -114.96055 28610 ft 405 kts 251°
2026-04-16 05:35 50.90437 -115.00396 29108 ft 408 kts 251°
2026-04-16 05:35 50.89735 -115.04766 29559 ft 411 kts 251°
2026-04-16 05:35 50.89027 -115.09165 30037 ft 413 kts 251°
2026-04-16 05:35 50.88324 -115.13530 30484 ft 414 kts 251°
2026-04-16 05:36 50.87609 -115.17955 30949 ft 414 kts 252°
2026-04-16 05:36 50.86893 -115.22378 31393 ft 415 kts 252°
2026-04-16 05:36 50.86168 -115.26830 31632 ft 421 kts 253°
2026-04-16 05:36 50.85434 -115.31327 31966 ft 422 kts 253°
2026-04-16 05:37 50.84702 -115.35811 32496 ft 420 kts 253°
2026-04-16 05:37 50.83969 -115.40288 32899 ft 419 kts 253°
2026-04-16 05:37 50.83235 -115.44759 33270 ft 420 kts 254°
2026-04-16 05:37 50.82499 -115.49233 33677 ft 420 kts 254°
2026-04-16 05:38 50.81762 -115.53697 34106 ft 419 kts 254°
2026-04-16 05:38 50.81023 -115.58157 34361 ft 420 kts 254°
2026-04-16 05:38 50.80280 -115.62631 34681 ft 420 kts 254°
2026-04-16 05:38 50.79535 -115.67104 34978 ft 421 kts 255°
2026-04-16 05:39 50.78784 -115.71600 35126 ft 425 kts 255°
2026-04-16 05:39 50.78026 -115.76130 35326 ft 427 kts 255°
2026-04-16 05:39 50.77267 -115.80649 35659 ft 426 kts 255°
2026-04-16 05:39 50.76512 -115.85137 35778 ft 430 kts 255°
2026-04-16 05:40 50.75740 -115.89716 35788 ft 432 kts 255°
2026-04-16 05:40 50.74206 -115.98777 35755 ft 421 kts 255°
2026-04-16 05:41 50.72685 -116.07713 35767 ft 422 kts 254°
2026-04-16 05:41 50.71150 -116.16683 35762 ft 425 kts 255°
2026-04-16 05:42 50.69599 -116.25707 35765 ft 427 kts 254°
2026-04-16 05:42 50.68036 -116.34759 35758 ft 428 kts 254°
2026-04-16 05:43 50.66454 -116.43841 35760 ft 430 kts 254°
2026-04-16 05:43 50.64850 -116.52950 35764 ft 432 kts 254°
2026-04-16 05:44 50.63246 -116.62016 35775 ft 432 kts 254°
2026-04-16 05:44 50.61623 -116.71154 35776 ft 433 kts 254°
2026-04-16 05:45 50.59994 -116.80280 35784 ft 433 kts 254°
2026-04-16 05:45 50.58357 -116.89410 35784 ft 433 kts 254°
2026-04-16 05:46 50.56715 -116.98518 35790 ft 433 kts 254°
2026-04-16 05:46 50.55065 -117.07627 35792 ft 433 kts 254°
2026-04-16 05:47 50.53407 -117.16733 35804 ft 433 kts 254°
2026-04-16 05:47 50.51744 -117.25822 35810 ft 433 kts 254°
2026-04-16 05:48 50.50072 -117.34916 35820 ft 432 kts 254°
2026-04-16 05:48 50.48397 -117.43978 35827 ft 432 kts 254°
2026-04-16 05:49 50.46726 -117.52982 35840 ft 432 kts 254°
2026-04-16 05:49 50.45036 -117.62036 35838 ft 432 kts 254°
2026-04-16 05:50 50.43335 -117.71110 35858 ft 438 kts 254°
2026-04-16 05:50 50.41582 -117.80416 35860 ft 451 kts 254°
2026-04-16 05:51 50.39777 -117.89949 35861 ft 459 kts 254°
2026-04-16 05:51 50.37948 -117.99555 35852 ft 460 kts 254°
2026-04-16 05:52 50.36112 -118.09151 35854 ft 459 kts 254°
2026-04-16 05:52 50.34283 -118.18663 35855 ft 458 kts 254°
2026-04-16 05:53 50.32440 -118.28198 35865 ft 457 kts 254°
2026-04-16 05:53 50.30591 -118.37717 35863 ft 457 kts 253°
2026-04-16 05:54 50.28739 -118.47205 35875 ft 456 kts 253°
2026-04-16 05:54 50.26882 -118.56676 35877 ft 455 kts 253°
2026-04-16 05:55 50.25015 -118.66146 35874 ft 456 kts 253°
2026-04-16 05:55 50.23143 -118.75597 35884 ft 455 kts 253°
2026-04-16 05:56 50.21268 -118.85009 35876 ft 454 kts 254°
2026-04-16 05:56 50.19394 -118.94405 35891 ft 453 kts 253°
2026-04-16 05:57 50.17511 -119.03774 35890 ft 452 kts 254°
2026-04-16 05:57 50.15620 -119.13125 35899 ft 452 kts 255°
2026-04-16 05:58 50.13721 -119.22477 35895 ft 453 kts 253°
2026-04-16 05:58 50.11815 -119.31812 35903 ft 455 kts 253°
2026-04-16 05:59 50.09888 -119.41225 35893 ft 457 kts 253°
2026-04-16 05:59 50.07950 -119.50655 35892 ft 457 kts 253°
2026-04-16 06:00 50.05997 -119.60098 35884 ft 458 kts 253°
2026-04-16 06:00 50.04035 -119.69548 35907 ft 460 kts 253°
2026-04-16 06:01 50.02054 -119.79038 35930 ft 462 kts 253°
2026-04-16 06:01 50.00059 -119.88547 35934 ft 463 kts 253°
2026-04-16 06:02 49.97046 -120.02826 35945 ft 463 kts 253°
2026-04-16 06:02 49.95040 -120.12274 35954 ft 462 kts 252°
2026-04-16 06:03 49.93020 -120.21743 35962 ft 461 kts 254°
2026-04-16 06:03 49.91000 -120.31184 35967 ft 461 kts 252°
2026-04-16 06:04 49.88974 -120.40605 35968 ft 461 kts 253°
2026-04-16 06:04 49.86932 -120.50050 35967 ft 462 kts 253°
2026-04-16 06:05 49.85226 -120.57903 35980 ft 463 kts 253°
2026-04-16 06:05 49.83162 -120.67369 35983 ft 464 kts 253°
2026-04-16 06:06 49.81086 -120.76850 35995 ft 465 kts 253°
2026-04-16 06:06 49.78998 -120.86338 35982 ft 465 kts 253°
2026-04-16 06:07 49.76903 -120.95817 36008 ft 466 kts 253°
2026-04-16 06:07 49.74798 -121.05298 36009 ft 466 kts 253°
2026-04-16 06:08 49.72682 -121.14786 36041 ft 466 kts 253°
2026-04-16 06:08 49.70562 -121.24246 36038 ft 466 kts 253°
2026-04-16 06:09 49.68432 -121.33714 36042 ft 466 kts 253°
2026-04-16 06:09 49.66296 -121.43162 36063 ft 466 kts 253°
2026-04-16 06:10 49.64160 -121.52570 36063 ft 467 kts 253°
2026-04-16 06:10 49.62006 -121.62013 36052 ft 467 kts 253°
2026-04-16 06:11 49.59846 -121.71438 36048 ft 466 kts 253°
2026-04-16 06:11 49.57680 -121.80856 36045 ft 466 kts 253°
2026-04-16 06:12 49.55504 -121.90277 36047 ft 466 kts 253°
2026-04-16 06:12 49.54413 -121.94989 35881 ft 470 kts 253°
2026-04-16 06:12 49.53307 -121.99753 35355 ft 473 kts 253°
2026-04-16 06:13 49.52140 -122.04491 34684 ft 474 kts 249°
2026-04-16 06:13 49.50587 -122.08965 34053 ft 474 kts 242°
2026-04-16 06:13 49.48865 -122.13266 33424 ft 472 kts 242°
2026-04-16 06:13 49.47123 -122.17540 32887 ft 470 kts 241°
2026-04-16 06:14 49.45389 -122.21803 32346 ft 472 kts 242°
2026-04-16 06:14 49.43654 -122.26103 31835 ft 477 kts 242°
2026-04-16 06:14 49.41908 -122.30464 31308 ft 479 kts 242°
2026-04-16 06:14 49.40168 -122.34823 30790 ft 478 kts 242°
2026-04-16 06:15 49.38432 -122.39177 30259 ft 478 kts 242°
2026-04-16 06:15 49.36695 -122.43529 29621 ft 478 kts 242°
2026-04-16 06:15 49.34981 -122.47817 29022 ft 475 kts 242°
2026-04-16 06:15 49.33257 -122.52118 28489 ft 472 kts 242°
2026-04-16 06:16 49.31536 -122.56409 27917 ft 473 kts 241°
2026-04-16 06:16 49.29801 -122.60728 27355 ft 477 kts 241°
2026-04-16 06:16 49.28055 -122.65065 26751 ft 478 kts 241°
2026-04-16 06:16 49.26312 -122.69374 26241 ft 476 kts 240°
2026-04-16 06:17 49.24565 -122.73675 25709 ft 474 kts 240°
2026-04-16 06:17 49.22825 -122.77950 25122 ft 473 kts 240°
2026-04-16 06:17 49.21090 -122.82211 24580 ft 471 kts 240°
2026-04-16 06:17 49.19369 -122.86428 24021 ft 462 kts 240°
2026-04-16 06:18 49.17682 -122.90558 23417 ft 454 kts 240°
2026-04-16 06:18 49.16022 -122.94620 22773 ft 448 kts 240°
2026-04-16 06:18 49.14382 -122.98630 22222 ft 444 kts 240°
2026-04-16 06:18 49.12752 -123.02611 21671 ft 440 kts 240°
2026-04-16 06:19 49.11133 -123.06556 21122 ft 437 kts 240°
2026-04-16 06:19 49.09489 -123.10447 20567 ft 435 kts 236°
2026-04-16 06:19 49.07474 -123.13884 20017 ft 435 kts 224°
2026-04-16 06:19 49.05082 -123.16678 19503 ft 434 kts 214°
2026-04-16 06:20 49.02403 -123.18786 18972 ft 431 kts 205°
2026-04-16 06:20 48.99685 -123.20597 18423 ft 423 kts 205°
2026-04-16 06:20 48.97002 -123.22382 17823 ft 417 kts 205°
2026-04-16 06:20 48.94362 -123.24174 17291 ft 415 kts 206°
2026-04-16 06:21 48.91739 -123.25985 16728 ft 412 kts 206°
2026-04-16 06:21 48.89162 -123.27772 16199 ft 401 kts 206°
2026-04-16 06:21 48.86760 -123.29774 15740 ft 386 kts 217°
2026-04-16 06:21 48.84785 -123.32304 15598 ft 358 kts 223°
2026-04-16 06:22 48.82993 -123.34739 15411 ft 334 kts 223°
2026-04-16 06:22 48.81308 -123.37006 15135 ft 316 kts 223°
2026-04-16 06:22 48.79693 -123.39161 14477 ft 313 kts 223°
2026-04-16 06:22 48.78306 -123.41668 13689 ft 310 kts 246°
2026-04-16 06:23 48.77759 -123.44763 12981 ft 302 kts 271°
2026-04-16 06:23 48.78072 -123.47810 12496 ft 288 kts 293°
2026-04-16 06:23 48.79085 -123.50349 12035 ft 276 kts 313°
2026-04-16 06:23 48.80519 -123.52189 11621 ft 267 kts 332°
2026-04-16 06:24 48.82212 -123.53289 11256 ft 265 kts 341°
2026-04-16 06:24 48.83970 -123.54191 10870 ft 269 kts 342°
2026-04-16 06:24 48.85791 -123.55086 10490 ft 280 kts 342°
2026-04-16 06:24 48.87654 -123.56000 10225 ft 276 kts 342°
2026-04-16 06:25 48.89418 -123.56872 10072 ft 258 kts 342°
2026-04-16 06:25 48.91075 -123.57698 9795 ft 246 kts 342°
2026-04-16 06:25 48.92672 -123.58499 9512 ft 238 kts 342°
2026-04-16 06:25 48.94244 -123.59289 9187 ft 239 kts 342°
2026-04-16 06:26 48.95839 -123.60094 8876 ft 244 kts 342°
2026-04-16 06:26 48.97483 -123.60924 8545 ft 254 kts 342°
2026-04-16 06:26 48.99173 -123.61779 8199 ft 254 kts 342°
2026-04-16 06:26 49.00819 -123.62614 7857 ft 244 kts 342°
2026-04-16 06:27 49.02403 -123.63420 7541 ft 236 kts 342°
2026-04-16 06:27 49.03941 -123.64202 7248 ft 231 kts 342°
2026-04-16 06:27 49.05477 -123.64983 6946 ft 235 kts 342°
2026-04-16 06:27 49.07046 -123.65781 6638 ft 242 kts 342°
2026-04-16 06:28 49.08642 -123.66594 6293 ft 239 kts 342°
2026-04-16 06:28 49.10196 -123.67387 5935 ft 231 kts 341°
2026-04-16 06:28 49.11692 -123.68151 5653 ft 222 kts 341°
2026-04-16 06:28 49.13121 -123.68881 5378 ft 217 kts 342°
2026-04-16 06:29 49.14557 -123.69617 5074 ft 219 kts 341°
2026-04-16 06:29 49.16011 -123.70354 4789 ft 222 kts 341°
2026-04-16 06:29 49.17476 -123.71105 4550 ft 219 kts 341°
2026-04-16 06:29 49.18894 -123.71832 4451 ft 214 kts 341°
2026-04-16 06:30 49.20315 -123.72561 4354 ft 216 kts 341°
2026-04-16 06:30 49.21717 -123.73394 4246 ft 218 kts 327°
2026-04-16 06:30 49.22712 -123.75146 4051 ft 224 kts 295°
2026-04-16 06:30 49.23031 -123.77437 3808 ft 217 kts 275°
2026-04-16 06:31 49.23064 -123.79680 3599 ft 203 kts 273°
2026-04-16 06:31 49.23072 -123.81820 3419 ft 202 kts 272°
2026-04-16 06:31 49.23001 -123.83939 3169 ft 197 kts 259°
2026-04-16 06:31 49.22179 -123.85499 3032 ft 196 kts 211°
2026-04-16 06:32 49.20852 -123.86111 2974 ft 198 kts 198°
2026-04-16 06:32 49.19471 -123.86469 2722 ft 203 kts 193°
2026-04-16 06:32 49.18091 -123.86691 2434 ft 199 kts 188°
2026-04-16 06:32 49.16760 -123.86736 2227 ft 187 kts 184°
2026-04-16 06:33 49.15468 -123.86719 1902 ft 175 kts 193°
2026-04-16 06:33 49.14299 -123.86873 1671 ft 164 kts 186°
2026-04-16 06:33 49.13225 -123.86845 1473 ft 148 kts 187°
2026-04-16 06:33 49.12210 -123.86859 1273 ft 148 kts 188°
2026-04-16 06:34 49.11187 -123.86883 1079 ft 143 kts 187°
2026-04-16 06:34 49.10216 -123.86910 894 ft 139 kts 188°
2026-04-16 06:34 49.09274 -123.86922 671 ft 132 kts 185°
2026-04-16 06:34 49.08363 -123.86922 507 ft 132 kts 189°
2026-04-16 06:35 49.07398 -123.86965 330 ft 142 kts 186°
2026-04-16 06:35 49.06425 -123.86992 156 ft 138 kts 186°
2026-04-16 06:35 49.05530 -123.87015 100 ft 111 kts 181°
2026-04-16 06:35 49.04941 -123.87030 102 ft 33 kts 180°
2026-04-16 06:36 49.04720 -123.87033 102 ft 32 kts 181°
2026-04-16 06:36 49.04576 -123.87063 98 ft 12 kts 230°
2026-04-16 06:36 49.04597 -123.87169 100 ft 11 kts 318°
2026-04-16 06:36 49.04653 -123.87253 99 ft 11 kts 314°
2026-04-16 06:37 49.04723 -123.87278 99 ft 11 kts
2026-04-16 06:37 49.04798 -123.87275 100 ft 11 kts
2026-04-16 06:37 49.04871 -123.87274 100 ft 11 kts
2026-04-16 06:37 49.04959 -123.87273 100 ft 14 kts
2026-04-16 06:38 49.05069 -123.87269 100 ft 17 kts
2026-04-16 06:38 49.05189 -123.87268 98 ft 6 kts
2026-04-16 06:38 49.05225 -123.87267 100 ft 5 kts